GFSSGP_850_rhum_273.txt.gz
RH
6 8 14 27 27 23 26 25 24 32 34 40 39 36 36 59 40 30 52 51 51 55 55 51 54 52 43 36 37 43 49 51 56 56 54 58 61 50 52 62 44 32 48 72 60 50 29 21 18
9 12 17 24 23 24 25 25 29 30 39 42 41 46 43 56 71 59 60 50 53 55 55 51 54 54 46 37 37 46 54 57 53 52 54 55 45 42 50 53 32 34 46 58 40 20 16 17 21
13 13 18 24 26 23 24 26 28 35 42 38 43 50 53 64 69 66 50 47 53 56 57 53 54 55 51 42 36 38 50 51 49 46 42 42 45 37 37 34 28 29 34 30 15 14 17 21 23
13 14 13 17 22 20 23 26 37 38 40 43 46 50 62 66 62 52 43 45 54 56 59 56 56 57 56 49 41 35 35 38 41 46 47 46 44 43 30 26 27 29 26 15 16 24 27 33 40
12 10 13 15 15 20 27 29 38 37 45 46 46 54 65 66 58 49 44 48 52 57 62 62 60 61 61 57 46 43 34 33 35 36 38 41 44 44 38 27 28 22 17 18 30 38 47 56 50
11 11 14 16 18 30 30 40 40 42 46 47 46 56 76 89 75 58 45 46 49 55 63 67 65 64 64 63 55 47 43 37 35 38 37 36 37 40 40 30 31 25 22 22 31 43 55 54 47
11 11 13 18 26 33 25 38 38 39 39 46 48 53 78 77 64 56 46 47 51 61 65 69 70 68 66 66 63 53 48 42 40 37 38 39 37 37 38 36 28 30 24 24 30 40 48 45 44
11 10 12 22 32 32 16 29 42 39 51 54 53 46 52 58 52 56 60 58 61 68 72 74 73 72 70 68 68 63 54 50 46 42 39 33 33 34 32 34 34 30 30 27 25 26 30 34 37
11 11 10 12 25 21 20 33 49 60 64 74 73 66 50 50 54 60 63 65 70 80 81 79 76 75 75 72 67 63 58 52 48 46 44 41 38 32 30 30 28 32 30 28 26 25 25 25 26
12 12 10 11 16 18 28 32 40 55 67 81 88 88 67 57 56 51 47 47 57 65 73 76 71 71 74 70 63 59 58 57 55 55 53 52 44 41 35 33 33 32 29 30 31 31 30 29 29
13 11 10 12 15 24 34 48 56 57 65 75 84 91 82 66 63 48 46 48 49 47 45 44 48 57 59 57 55 55 53 55 54 54 53 50 50 50 42 38 36 35 35 35 34 32 31 30 31
12 13 13 14 18 27 42 56 63 65 74 80 86 89 86 77 74 68 65 68 72 62 50 49 48 48 51 54 58 58 66 69 63 56 54 49 49 47 47 48 47 47 53 54 58 59 60 59 63
14 11 30 34 39 52 53 59 66 66 70 80 84 84 83 81 79 80 81 84 86 82 72 53 53 57 60 64 65 70 82 83 73 70 75 75 75 74 72 74 73 71 62 60 64 70 72 74 75
14 28 39 43 47 50 50 52 56 61 66 72 78 79 79 78 79 80 81 86 90 90 88 67 57 59 62 61 63 80 73 74 77 71 70 70 73 75 74 75 77 78 78 79 77 77 78 80 82
17 29 32 31 43 46 41 50 62 60 62 67 70 76 80 81 86 83 83 86 93 96 96 87 78 74 76 76 73 79 73 78 67 67 67 69 68 73 68 71 69 64 71 69 70 70 68 67 71
12 17 21 29 34 38 35 59 56 60 60 62 63 65 73 77 81 85 88 92 97 99 100 100 95 94 95 96 84 85 97 84 76 80 91 92 80 83 78 77 76 76 72 73 72 70 73 74 75
14 16 18 29 23 33 32 58 55 58 60 60 57 57 57 57 64 73 81 87 92 98 100 99 99 100 100 100 99 99 100 100 100 98 92 91 92 88 89 88 86 84 86 84 86 80 82 84 82
14 16 17 23 25 35 46 52 53 56 57 60 56 56 56 48 46 50 60 73 84 92 100 100 100 100 99 100 99 100 99 99 93 95 96 95 92 92 91 89 91 89 90 88 90 90 91 95 90
13 14 16 28 34 38 45 56 54 54 58 61 56 55 56 44 37 38 39 44 56 76 94 100 100 100 99 97 94 87 82 81 72 61 58 55 53 53 51 50 49 49 47 48 48 49 48 49 48
13 14 15 41 40 44 52 59 56 54 54 55 53 56 60 44 30 24 24 26 32 38 50 72 90 95 92 81 73 65 58 48 42 36 33 30 27 25 24 23 21 21 21 21 21 22 22 24 24
14 15 27 26 46 46 49 63 60 53 54 59 58 59 62 51 33 25 20 17 14 14 19 29 36 40 41 40 38 35 32 26 19 14 11 9 8 7 6 6 5 5 4 4 4 4 4 5 12
15 13 21 41 34 32 39 31 60 54 52 55 58 60 62 55 36 27 23 20 17 15 14 13 12 12 12 13 13 13 12 10 9 8 6 5 4 3 3 3 3 4 4 4 5 6 5 5 6
12 15 25 34 32 38 51 36 39 50 56 54 56 61 63 51 32 28 26 21 18 16 14 13 12 12 11 10 9 8 6 6 6 6 5 4 4 4 4 4 5 5 6 7 8 10 11 13 19
28 30 34 42 52 63 42 38 26 53 51 48 52 59 62 56 37 32 27 22 19 18 14 13 11 11 10 8 7 5 5 5 5 5 4 5 6 6 6 7 7 8 8 10 12 14 18 21 25
24 33 59 56 61 33 28 48 30 36 38 41 50 56 62 51 43 36 31 27 24 21 19 17 15 14 14 10 7 5 5 4 4 5 5 6 7 7 8 10 10 11 13 16 21 25 29 33 36
27 25 44 36 38 30 40 44 29 23 34 38 49 55 60 55 47 40 35 31 29 26 22 18 16 14 15 13 10 7 5 5 5 5 6 7 7 8 10 12 13 15 18 22 28 32 36 39 42
22 33 21 28 38 35 34 32 34 35 38 42 50 58 60 57 54 44 38 35 35 32 26 20 17 16 18 15 14 8 5 5 6 8 8 7 8 10 13 14 16 18 21 26 27 32 35 41 45
22 20 31 41 38 35 28 28 27 42 46 46 54 59 63 55 56 51 40 38 38 36 32 27 23 20 22 19 17 11 7 8 9 9 8 9 10 12 15 18 20 22 25 26 30 32 36 39 44
27 27 26 22 35 30 25 23 22 36 48 52 50 57 62 55 54 52 41 40 41 40 37 32 28 22 22 23 21 15 8 9 10 9 9 10 13 14 18 22 19 20 22 26 28 32 35 39 42
24 26 25 29 29 32 27 22 35 30 43 47 47 54 60 54 52 48 41 42 44 43 41 36 31 26 25 25 23 14 8 9 10 10 10 11 13 16 17 16 16 21 25 29 31 34 37 37 42

GFSSGP_850_rhum_279.txt.gz
RH
9 15 32 31 29 21 25 12 9 12 14 15 18 19 24 31 32 34 32 41 56 66 43 43 39 38 44 66 68 71 71 64 62 60 60 59 60 65 65 47 53 77 73 64 47 23 21 17 19
23 21 24 22 19 19 16 11 13 14 16 18 20 19 21 33 34 38 44 50 58 68 75 46 38 36 45 62 64 62 58 54 55 59 52 44 45 56 47 34 44 79 72 47 20 20 19 24 21
6 18 13 11 12 20 48 12 16 16 18 16 18 19 23 33 31 34 46 52 58 65 75 49 42 37 41 57 63 61 53 49 46 46 49 43 43 39 26 32 51 57 40 18 22 24 26 27 28
15 11 8 10 12 20 44 13 15 13 14 14 18 35 47 35 40 45 49 54 58 61 80 52 48 43 42 48 60 56 49 46 41 40 42 44 38 31 32 31 33 26 16 18 22 26 30 34 39
10 6 7 8 9 11 10 13 13 14 15 15 16 23 51 59 48 48 50 54 57 67 73 57 54 50 46 48 51 49 45 43 42 41 43 44 44 33 33 30 20 16 18 22 26 35 43 48 47
8 4 6 8 8 10 11 14 13 16 19 17 18 33 57 67 56 52 50 54 60 71 92 62 59 57 53 50 48 46 45 45 46 44 43 44 44 40 30 30 24 20 29 36 43 50 51 50 45
8 5 5 6 7 14 12 16 16 17 19 19 23 29 64 71 80 76 57 58 64 72 82 97 71 63 62 58 55 51 45 42 40 42 43 44 42 41 35 30 28 24 25 36 47 56 58 52 48
8 5 5 4 6 14 13 19 19 18 21 22 20 34 46 86 98 87 90 86 83 87 88 92 95 94 70 67 63 58 54 47 44 41 38 37 44 42 43 44 33 33 27 25 30 36 36 31 30
8 7 5 4 6 12 17 19 23 30 32 28 25 23 54 89 97 95 90 85 81 90 91 96 98 96 95 90 70 67 62 57 56 50 46 52 83 81 80 45 37 35 30 29 27 25 24 23 24
8 8 5 3 4 13 18 19 30 28 36 34 36 62 74 76 69 64 68 73 82 96 99 99 96 95 99 91 81 89 90 99 93 91 75 77 65 73 67 48 32 31 30 31 32 31 30 29 47
9 9 5 4 6 11 17 19 28 26 32 36 43 53 54 48 46 46 46 53 61 73 80 98 90 95 88 71 74 68 75 79 87 90 92 86 80 83 72 65 70 75 60 69 68 70 64 60 64
10 8 7 6 7 10 18 26 29 26 29 34 39 41 40 39 39 38 40 43 50 64 78 88 96 88 84 81 76 71 68 73 71 80 92 86 75 77 75 63 67 64 63 72 72 65 70 80 80
10 9 8 8 9 12 21 30 37 41 43 38 37 37 37 37 36 35 37 41 47 54 64 76 80 63 63 92 74 73 76 88 88 87 74 86 90 85 78 73 68 69 69 68 71 68 67 70 70
10 10 9 9 12 19 28 33 40 46 50 48 44 39 38 37 40 48 55 59 62 64 73 86 92 58 94 90 86 85 93 83 96 87 68 74 91 74 87 80 83 85 87 88 83 82 84 74 72
10 9 10 12 17 22 28 40 38 47 49 49 46 46 46 48 53 60 64 74 75 80 86 97 97 98 94 92 86 88 83 86 80 75 70 68 69 67 70 96 98 99 98 98 96 95 88 84 84
11 12 16 12 15 21 27 24 36 48 50 46 46 50 55 57 58 64 70 72 76 88 98 88 90 98 95 92 91 77 75 88 77 78 73 72 72 78 79 86 84 81 87 86 91 87 97 95 93
12 16 15 13 15 20 25 19 35 45 46 44 46 50 53 56 59 65 68 67 72 93 89 96 78 72 82 92 84 78 83 92 89 89 86 81 86 88 90 87 85 87 84 82 80 78 83 81 82
11 15 14 15 16 18 25 21 33 41 42 42 44 48 50 53 56 62 63 68 77 92 98 99 96 87 86 93 96 96 98 96 99 98 94 92 88 88 84 71 56 53 51 49 38 34 41 56 58
7 9 13 12 13 19 20 22 34 39 40 42 43 45 47 50 52 60 67 75 84 89 97 99 100 100 100 98 100 100 100 98 98 93 83 78 65 51 41 35 28 36 21 10 5 5 32 43 51
7 9 11 10 12 17 16 20 31 36 36 38 39 42 44 44 47 53 62 75 84 94 97 91 99 100 100 99 97 93 90 82 77 66 52 40 29 20 12 7 7 5 31 6 4 5 17 48 62
8 9 10 11 16 16 16 21 31 32 34 34 36 37 39 40 40 45 50 61 78 87 96 98 99 100 99 97 90 87 83 60 54 47 27 13 8 5 3 3 3 8 12 12 6 6 15 61 61
11 7 8 10 18 22 16 26 27 30 34 32 33 33 34 35 35 38 42 49 55 72 83 87 86 85 84 71 66 59 48 47 52 49 14 5 3 4 4 4 6 7 12 12 39 24 70 56 66
9 6 7 9 12 19 19 23 22 24 32 30 30 31 32 32 32 33 36 39 45 56 62 68 69 65 65 60 57 51 48 48 49 20 7 6 7 8 6 8 8 10 17 22 20 23 24 75 77
7 8 8 8 10 23 25 26 23 22 25 25 26 29 32 33 31 31 33 36 39 44 51 45 46 39 34 31 29 41 41 45 48 50 53 56 51 18 11 10 8 10 16 16 18 30 28 34 65
8 13 15 15 15 18 16 22 22 15 17 20 22 27 31 34 32 32 33 35 38 45 52 47 44 37 26 19 18 24 40 47 52 52 53 55 58 42 9 10 9 10 12 14 43 29 41 41 65
10 12 20 20 16 14 10 19 15 13 13 16 19 26 30 34 34 33 33 34 39 49 52 44 45 33 27 20 22 26 28 50 52 53 55 50 43 13 8 10 12 13 14 26 45 36 44 52 56
11 12 10 17 12 14 11 10 9 10 12 15 18 24 28 34 35 34 35 35 41 49 50 42 47 41 33 28 30 28 36 44 26 10 17 17 12 12 10 17 25 20 18 21 59 37 34 46 38
11 8 15 16 24 22 15 14 13 13 12 14 18 21 27 34 36 36 36 38 42 48 50 53 51 48 51 43 26 22 20 12 15 22 25 13 12 13 18 33 36 24 19 17 33 43 25 43 40
11 12 12 12 16 25 22 14 9 10 13 14 16 19 26 35 37 37 37 38 42 46 52 57 54 54 58 51 49 31 28 18 24 24 23 28 15 18 28 34 24 22 17 16 24 46 45 67 78
12 11 12 20 18 16 20 17 8 10 10 15 14 18 24 35 38 37 36 38 41 45 53 57 54 58 60 56 54 46 32 47 45 32 27 14 17 17 18 26 19 19 19 19 26 28 51 78 83

GFSSGP_850_rhum_285.txt.gz
RH
11 21 27 34 46 64 65 63 39 31 24 26 26 28 32 30 34 85 70 34 27 30 28 25 24 37 62 75 70 67 68 65 62 60 55 57 59 61 73 80 71 74 49 31 26 22 26 23 15
12 18 25 24 47 74 76 49 40 32 25 28 32 34 40 56 63 80 64 36 31 32 28 24 26 37 53 59 55 55 57 60 52 44 46 53 43 31 32 64 75 68 29 24 23 29 26 24 23
8 19 23 27 38 68 72 47 34 31 24 25 26 29 36 50 52 66 53 38 34 34 29 26 29 37 43 44 43 42 38 41 43 39 35 32 23 26 43 56 59 29 20 20 26 25 24 26 25
17 22 18 16 17 35 43 38 29 26 26 25 32 39 38 42 58 60 60 37 41 38 32 31 30 41 43 38 39 38 37 38 40 40 31 28 27 24 33 34 21 14 20 24 27 30 32 35 33
12 16 16 17 13 27 31 33 23 24 28 36 38 43 43 48 55 62 65 65 46 43 38 35 33 39 42 38 34 34 34 35 36 38 36 28 29 24 17 14 14 17 20 21 25 31 32 35 35
10 11 16 15 11 29 32 26 23 21 34 44 42 43 45 48 54 59 62 64 48 48 45 41 40 38 38 37 36 35 34 33 34 36 38 34 28 25 18 16 20 21 24 31 34 33 30 26 27
11 14 15 14 12 32 33 22 20 30 39 44 44 45 45 48 54 62 62 64 64 50 51 49 45 44 42 39 35 35 36 34 32 33 34 35 35 30 25 21 22 27 30 34 37 33 29 24 19
10 14 14 12 12 10 29 24 22 48 31 45 44 51 45 48 55 63 66 67 62 53 54 55 55 52 48 46 44 40 39 38 35 33 52 59 57 57 41 28 24 22 23 26 28 26 22 19 18
9 17 17 14 12 9 27 41 52 57 66 41 42 42 44 47 54 63 69 71 67 60 58 59 61 62 59 55 49 47 47 49 45 56 84 73 78 73 56 31 28 27 25 24 24 24 23 23 40
12 20 16 11 10 8 12 35 57 54 58 54 55 51 52 55 65 67 74 77 67 66 68 61 67 68 63 56 59 49 57 74 76 76 89 81 76 63 53 63 57 40 47 33 61 56 61 63 58
11 15 13 11 10 9 39 55 57 57 74 64 73 66 59 69 78 82 77 72 68 69 72 75 73 71 73 67 76 73 75 70 74 65 81 84 76 74 72 68 64 62 68 61 62 64 64 67 64
15 12 12 10 9 7 13 59 58 62 49 68 68 60 60 71 73 77 83 81 79 72 75 81 78 74 86 87 87 83 82 79 78 72 78 68 66 74 79 72 76 79 77 78 74 82 79 80 80
13 14 12 10 9 7 8 49 75 86 71 65 66 67 62 64 56 57 47 51 60 61 74 71 74 72 87 96 86 82 95 77 72 73 74 74 72 74 81 79 88 91 86 93 84 85 84 88 84
9 10 12 12 10 8 9 33 40 50 60 64 64 64 63 59 51 50 56 66 66 76 79 81 72 69 88 76 80 79 73 67 74 76 70 69 78 75 74 75 80 76 70 65 69 70 73 69 69
9 12 13 12 11 10 19 40 54 41 46 48 47 47 44 41 41 40 48 57 65 75 78 76 80 76 78 76 77 76 73 75 72 65 65 69 68 67 64 62 61 66 60 62 63 66 66 68 68
14 13 18 14 12 10 14 44 52 38 37 40 38 37 36 35 36 39 44 54 61 67 72 75 81 77 70 70 85 81 76 71 64 65 69 72 72 68 69 71 74 73 72 76 75 72 73 74 71
16 20 18 16 13 15 27 33 45 41 37 37 35 34 34 39 44 51 52 54 58 64 70 75 79 69 89 72 93 87 80 69 67 74 74 79 81 80 86 85 83 81 79 63 40 33 32 27 23
18 16 17 19 15 16 30 31 47 46 45 43 38 37 36 45 49 61 65 66 67 66 70 76 78 78 70 81 83 88 89 76 76 85 85 86 90 88 86 82 72 53 34 24 13 8 9 6 6
11 11 12 14 12 15 23 39 54 49 48 50 46 42 41 46 59 67 71 72 75 74 75 77 80 81 76 74 77 92 85 83 87 89 93 90 90 82 75 52 33 21 9 4 2 4 6 5 3
11 11 11 9 8 10 13 30 50 50 51 50 48 48 47 52 60 64 67 72 70 74 78 78 83 89 84 83 89 92 91 95 94 94 89 81 71 54 35 18 9 4 3 3 3 5 10 7 6
11 12 12 11 8 8 21 24 52 49 47 48 46 49 49 52 60 64 66 72 72 75 73 87 96 96 95 94 98 98 94 88 86 80 70 56 42 20 8 4 3 3 3 4 4 8 12 11 13
14 10 9 10 12 14 26 49 45 55 57 50 47 50 52 54 58 62 65 71 74 76 82 98 98 91 86 97 95 91 82 75 77 65 47 26 13 6 4 3 4 4 5 6 6 8 8 14 15
12 10 11 11 13 16 16 42 32 57 61 48 64 50 51 54 56 58 59 66 77 80 87 97 96 95 94 87 88 84 70 70 66 58 24 9 5 5 5 5 5 5 6 5 6 8 11 12 14
10 10 11 13 16 22 16 26 30 52 52 41 43 48 52 52 52 53 55 69 80 82 79 94 93 90 86 89 70 59 61 59 55 33 12 8 7 6 6 6 7 6 7 7 10 9 11 11 11
11 16 24 23 24 24 12 15 14 23 23 33 37 41 48 48 48 50 55 64 79 84 73 85 92 88 78 70 63 57 54 51 40 20 19 17 12 8 8 8 8 7 12 12 13 10 10 10 9
15 18 41 30 28 18 12 16 12 10 17 18 29 33 42 46 46 46 46 52 66 78 82 78 76 72 74 68 62 56 52 40 29 34 30 19 16 9 8 8 10 12 18 14 13 9 10 10 9
15 19 15 22 24 28 21 16 11 9 8 22 30 32 37 42 41 40 42 44 50 54 65 76 70 63 64 65 58 49 39 34 37 43 35 26 17 9 11 12 14 19 19 16 12 10 10 8 10
12 12 20 25 31 34 20 19 18 13 12 10 26 30 35 39 39 38 38 40 41 39 39 58 56 45 39 35 33 33 33 33 35 36 32 25 13 12 16 15 16 21 20 15 11 11 12 9 11
28 18 18 24 31 36 31 21 14 13 13 16 16 21 31 39 38 36 35 36 38 39 42 50 50 38 27 22 24 25 32 37 32 28 21 14 18 16 22 19 16 14 15 15 13 13 12 11 14
25 27 24 28 27 27 30 25 14 13 12 13 12 10 16 36 37 35 36 36 38 39 42 45 46 43 34 31 31 31 31 31 22 21 23 22 19 26 24 20 15 12 13 14 14 13 14 15 17

GFSSGP_850_rhum_291.txt.gz
RH
11 12 26 33 50 62 57 49 43 36 38 40 32 32 48 75 56 60 78 55 46 48 59 55 63 66 64 60 55 52 54 49 53 60 54 62 63 59 68 61 42 37 25 23 24 22 26 53 27
8 10 21 29 56 52 51 48 43 36 34 34 40 51 60 70 82 75 60 52 44 46 51 53 67 61 55 49 49 50 44 40 50 55 52 51 67 62 60 40 22 22 19 23 17 16 24 23 51
13 14 26 35 62 46 46 42 33 32 32 29 40 50 66 81 79 72 54 51 40 44 48 54 59 50 43 40 38 40 36 41 44 44 32 32 42 65 49 20 18 20 23 23 20 17 38 65 69
12 24 23 23 27 34 40 32 33 36 33 34 46 60 71 76 72 54 45 43 37 44 44 49 42 39 31 25 28 34 34 32 31 27 25 35 42 54 25 16 19 20 20 22 22 35 57 58 58
9 19 24 24 20 15 42 34 27 34 40 44 46 64 73 76 61 41 39 38 30 40 45 42 39 32 29 24 26 30 33 26 26 26 27 32 34 28 16 19 19 19 20 22 23 28 46 54 61
12 16 20 20 15 12 31 31 27 40 46 55 61 65 80 65 38 39 37 38 30 28 39 40 34 30 28 24 24 28 32 31 26 26 21 17 15 15 17 20 20 21 23 23 26 28 37 51 49
13 17 18 17 15 13 24 30 40 46 48 48 56 77 98 58 40 38 36 36 30 28 30 35 32 29 28 27 24 26 29 30 30 28 27 20 17 19 20 20 23 28 26 22 20 20 21 22 22
10 15 15 14 15 13 19 41 42 46 52 47 47 88 96 53 47 42 41 37 34 30 28 29 30 30 29 28 27 25 26 29 31 35 35 28 24 22 23 26 28 30 31 29 27 23 20 23 48
12 19 20 15 16 13 36 49 54 52 47 49 49 58 50 59 52 46 47 50 38 36 33 30 29 30 28 28 30 29 26 29 35 41 41 34 30 29 30 28 26 25 27 32 32 28 29 38 47
14 20 18 14 13 13 38 48 53 55 53 51 55 55 58 60 65 50 48 47 43 39 37 35 35 34 35 33 33 34 40 64 62 58 56 47 53 58 58 40 38 32 52 63 68 70 60 60 69
15 18 16 13 12 13 40 58 56 56 59 50 65 72 65 62 70 55 49 47 44 44 45 44 43 40 38 38 42 44 44 58 68 62 49 52 65 70 71 71 69 71 63 70 70 73 71 69 69
15 14 12 12 11 24 54 48 59 43 40 36 39 52 65 68 73 63 59 53 49 49 49 52 52 50 50 46 62 69 69 67 72 66 57 62 63 68 69 72 72 65 66 64 64 66 64 71 65
14 12 11 12 10 13 31 54 53 46 58 57 53 62 76 72 73 70 68 59 53 53 53 56 57 60 64 67 76 75 74 72 65 66 64 63 68 64 60 68 67 68 74 67 62 66 70 73 70
10 11 12 10 10 23 57 62 49 45 59 67 81 74 66 68 73 75 69 61 56 56 56 61 64 68 75 75 80 79 75 73 71 66 76 66 78 73 69 64 71 70 72 72 68 74 75 80 80
11 13 13 14 11 45 55 67 62 48 57 64 66 87 96 84 82 73 68 66 59 56 61 70 76 82 81 88 90 87 83 75 76 74 73 74 64 78 76 75 76 78 76 77 76 73 73 77 80
13 15 15 13 15 54 45 64 52 59 64 72 68 86 93 90 89 72 65 68 65 60 71 79 79 82 88 85 88 89 86 79 73 80 78 74 60 62 77 75 77 74 68 70 73 74 78 79 77
20 18 19 15 14 27 32 65 70 70 85 76 74 80 88 92 92 70 66 68 69 70 72 77 80 78 90 81 83 83 87 86 86 86 79 65 66 69 70 69 70 69 72 79 80 79 52 35 33
17 22 18 18 15 16 33 65 74 85 88 80 76 73 81 86 88 74 72 74 77 69 74 75 79 87 91 90 85 92 93 92 90 85 79 67 69 71 74 76 79 82 84 82 65 29 16 9 11
15 16 17 15 12 9 18 49 83 67 87 81 79 76 74 75 80 81 77 80 70 68 72 82 82 83 86 97 96 95 94 91 90 85 74 75 77 79 80 86 86 82 76 47 16 5 4 8 21
19 19 20 16 13 11 12 28 81 72 83 78 74 71 67 64 65 67 63 65 64 70 79 85 84 78 77 80 86 92 91 92 91 83 75 77 81 84 85 86 80 65 30 8 3 5 8 25 40
20 19 18 16 12 11 12 15 74 76 73 68 60 60 56 58 58 57 56 58 64 73 79 83 81 78 80 86 87 94 97 95 90 83 81 86 88 86 81 74 58 23 6 3 3 8 19 27 47
22 17 16 15 14 17 15 21 44 72 73 59 54 50 50 75 81 66 60 58 55 66 77 88 85 85 86 86 83 75 75 81 81 82 86 85 87 79 68 48 22 6 3 4 4 7 14 36 42
20 16 17 15 16 15 17 24 26 70 79 67 59 61 62 75 76 66 57 56 60 69 78 82 86 89 92 93 92 87 89 88 85 88 88 83 75 64 41 18 6 4 4 4 6 7 8 12 28
12 13 18 21 22 21 17 17 19 86 77 65 64 68 65 71 74 65 62 75 78 79 80 81 87 90 93 94 99 100 98 94 94 88 76 70 61 44 21 7 5 6 5 5 6 6 6 6 7
14 20 27 23 24 27 19 19 16 19 61 59 66 67 62 68 73 78 77 75 72 78 87 88 90 87 85 85 98 99 100 100 92 80 73 68 52 26 9 7 7 7 8 7 7 6 5 5 5
19 21 39 26 30 23 18 20 15 14 14 37 52 63 59 58 59 70 66 66 73 69 73 81 77 75 78 85 99 100 99 96 85 78 70 62 30 11 8 8 10 10 10 8 8 6 5 5 5
20 24 21 29 29 32 28 22 14 13 12 24 42 50 64 68 76 73 70 64 67 68 62 65 72 74 77 92 99 98 97 88 83 72 60 32 14 10 10 11 12 14 12 10 8 6 5 6 6
20 18 27 40 35 33 29 24 21 16 17 18 17 21 35 46 56 64 70 68 63 66 67 71 76 80 89 100 100 98 91 82 68 60 53 26 19 13 12 12 16 15 13 11 9 7 7 7 8
39 46 42 34 39 32 30 31 30 37 30 28 28 28 30 22 46 58 64 70 69 75 75 74 78 80 90 100 99 96 84 70 60 55 46 28 22 17 14 13 17 17 14 13 11 11 10 10 10
44 51 53 54 48 54 35 31 37 40 36 38 41 42 40 32 25 51 59 66 70 73 73 70 75 76 82 94 97 86 74 66 58 53 42 31 28 20 15 16 20 20 16 14 14 12 14 12 11